Regional Weather Roundup
Issued by NWS Little Rock, AR

Home | Current Version | Previous Version | Text Only | Print | Product List | Glossary Off
Versions: 1 2 3 4 5 6 7 8 9 10 11 12 13 14 15 16 17 18 19 20 21 22 23 24 25 26 27 28 29 30 31 32 33 34 35 36 37 38 39 40 41 42 43 44 45 46 47 48 49 50

000
ASUS44 KLZK 291605
RWRLZK

WEATHER ROUNDUP FOR ARKANSAS
NATIONAL WEATHER SERVICE LITTLE ROCK AR
1100 AM CDT MON SEP 29 2014

NOTE: "FAIR" INDICATES FEW OR NO CLOUDS BELOW 12,000 FEET WITH NO
SIGNIFICANT WEATHER AND/OR OBSTRUCTIONS TO VISIBILITY.

ARZ001-003-010-029-291700-
NORTHWEST ARKANSAS

CITY           SKY/WX    TMP DP  RH WIND       PRES   REMARKS
FAYETTEVILLE   SUNNY     76  63  64 E3        30.10F
FORT SMITH     SUNNY     77  63  61 CALM      30.06F
HARRISON       SUNNY     77  61  57 VRB5      30.10F
BENTONVILLE    SUNNY     79  63  57 CALM      30.11F
ROGERS         SUNNY     76  61  59 CALM      30.11F
SILOAM SPGS    SUNNY     77  61  57 CALM      30.10F
HIGHFILL       SUNNY     77  65  66 VRB3      30.10S
SPRINGDALE     SUNNY     77  64  65 CALM      30.12F
$$

ARZ004-005-016-291700-
NORTH CENTRAL ARKANSAS

CITY           SKY/WX    TMP DP  RH WIND       PRES   REMARKS
BATESVILLE     SUNNY     79  63  57 CALM      30.06F
FLIPPIN        SUNNY     75  61  60 CALM      30.09S
MTN HOME       SUNNY     75  63  66 CALM      30.08S
$$

ARZ040-041-291700-
WEST CENTRAL ARKANSAS

CITY           SKY/WX    TMP DP  RH WIND       PRES   REMARKS
MENA           SUNNY     79  63  57 CALM      30.09S
MOUNT IDA      SUNNY     76  62  62 CALM      30.05S
$$

ARZ009-017-025-026-028-291700-
NORTHEAST ARKANSAS

CITY           SKY/WX    TMP DP  RH WIND       PRES   REMARKS
CORNING          N/A     77  63  61 E5        30.06F
JONESBORO      SUNNY     82  62  50 NE7       30.04F
NEWPORT        CLOUDY    80  63  56 N8        30.06F
WALNUT RIDGE   SUNNY     79  63  57 N5        30.05F
BLYTHEVILLE    SUNNY     84  65  52 CALM      30.05S HX  86
NW BLYTHEVILLE SUNNY     79  66  65 NE30      30.05S
$$

ARZ022-023-033-042-044-291700-
CENTRAL ARKANSAS

CITY           SKY/WX    TMP DP  RH WIND       PRES   REMARKS
LITTLE ROCK    SUNNY     81  61  50 NE7       30.05F
N LITTLE ROCK  SUNNY     81  65  58 NE7       30.05F
JACKSONVILLE   SUNNY     82  61  49 VRB6      30.05F
SEARCY         SUNNY     82  61  48 VRB5      30.06F
HOT SPRINGS    SUNNY     80  61  52 CALM      30.06S
RUSSELLVILLE   SUNNY     78  62  57 NW3       30.07R
CLINTON        FAIR      81  66  61 CALM      30.07S
$$

ARZ036-291700-
EAST ARKANSAS

CITY           SKY/WX    TMP DP  RH WIND       PRES   REMARKS
WEST MEMPHIS   SUNNY     81  65  58 E9        30.03F
$$

ARZ050-053-066-070-073-291700-
SOUTHWEST ARKANSAS

CITY           SKY/WX    TMP DP  RH WIND       PRES   REMARKS
ARKADELPHIA    FAIR      80  65  60 NE6       30.05S
CAMDEN         SUNNY     84  63  48 NE8       30.03S HX  85
TEXARKANA      SUNNY     79  67  66 E8        30.04S
EL DORADO      SUNNY     82  64  54 NE9       30.02F
DE QUEEN       SUNNY     80  65  59 E7        30.03F
$$

ARZ056-057-069-291700-
SOUTHEAST ARKANSAS

CITY           SKY/WX    TMP DP  RH WIND       PRES   REMARKS
PINE BLUFF     SUNNY     79  61  53 VRB7      30.04F
STUTTGART      SUNNY     79  64  61 N9        30.05F
MONTICELLO     SUNNY     83  63  50 NE9       30.02S

$$




USA.gov is the U.S. government's official web portal to all federal, state and local government web resources and services.